TimeCDT,TemperatureF,Dew PointF,Humidity,Sea Level PressureIn,VisibilityMPH,Wind Direction,Wind SpeedMPH,Gust SpeedMPH,PrecipitationIn,Events,Conditions,WindDirDegrees,DateUTC
1:58 AM,66.2,60.8,83,30.10,10.0,SSE,3.5,-,N/A,,Clear,160,2013-05-27 06:58:00
2:58 AM,64.4,60.8,88,30.09,10.0,SSW,2.3,-,N/A,,Clear,200,2013-05-27 07:58:00
3:55 AM,62.6,59.0,88,30.09,10.0,South,4.6,-,N/A,,Clear,170,2013-05-27 08:55:00
4:58 AM,62.6,59.0,88,30.10,10.0,Calm,Calm,-,N/A,,Clear,0,2013-05-27 09:58:00
5:55 AM,60.8,59.0,94,30.12,10.0,SSW,3.5,-,N/A,,Clear,210,2013-05-27 10:55:00
6:58 AM,64.6,59.5,84,30.13,10.0,South,4.6,-,N/A,,Clear,170,2013-05-27 11:58:00
7:58 AM,70.9,59.2,66,30.12,10.0,South,6.9,-,N/A,,Clear,190,2013-05-27 12:58:00
8:55 AM,75.2,60.8,61,30.10,10.0,South,8.1,-,N/A,,Clear,190,2013-05-27 13:55:00
9:55 AM,77.0,60.8,57,30.11,10.0,SSW,11.5,-,N/A,,Clear,200,2013-05-27 14:55:00
10:58 AM,79.5,61.5,54,30.09,10.0,SSW,12.7,-,N/A,,Clear,200,2013-05-27 15:58:00
11:55 AM,82.4,62.6,51,30.08,10.0,SW,15.0,-,N/A,,Partly Cloudy,230,2013-05-27 16:55:00
11:58 AM,82.0,62.1,51,30.08,10.0,SW,15.0,-,N/A,,Partly Cloudy,230,2013-05-27 16:58:00
12:58 PM,82.6,60.6,47,30.06,10.0,South,16.1,-,N/A,,Scattered Clouds,190,2013-05-27 17:58:00
1:58 PM,83.5,61.9,48,30.05,10.0,SSW,17.3,26.5,N/A,,Clear,200,2013-05-27 18:58:00
2:58 PM,82.6,60.8,48,30.04,10.0,SW,13.8,-,N/A,,Partly Cloudy,220,2013-05-27 19:58:00
3:58 PM,82.0,61.5,50,30.04,10.0,SSW,12.7,19.6,N/A,,Scattered Clouds,200,2013-05-27 20:58:00
4:58 PM,81.7,59.4,47,30.01,10.0,SSW,10.4,-,N/A,,Clear,210,2013-05-27 21:58:00
5:58 PM,80.4,58.1,46,30.01,10.0,SSW,10.4,-,N/A,,Mostly Cloudy,200,2013-05-27 22:58:00
6:58 PM,78.6,60.4,54,30.01,10.0,South,8.1,-,N/A,,Scattered Clouds,190,2013-05-27 23:58:00
7:58 PM,77.0,60.8,57,30.00,10.0,South,6.9,-,N/A,,Mostly Cloudy,170,2013-05-28 00:58:00
8:58 PM,75.6,61.3,61,30.00,10.0,South,6.9,-,N/A,,Clear,170,2013-05-28 01:58:00
9:58 PM,74.7,61.5,63,29.99,10.0,SSE,10.4,-,N/A,,Clear,160,2013-05-28 02:58:00
10:58 PM,73.4,61.9,67,29.98,10.0,South,10.4,-,N/A,,Partly Cloudy,170,2013-05-28 03:58:00
11:58 PM,72.9,62.4,70,29.99,10.0,SSE,6.9,-,N/A,,Clear,160,2013-05-28 04:58:00